This is the latest recevied weather packets stored in our database for station/object JE0GNV-13. If no packets are shown the sender has not sent any weather packets the latest 10 day(s).
| Time | Temp. | Humidity | Pressure | Rain* | Wind** | Luminosity | Snow |
|---|---|---|---|---|---|---|---|
| 1777267201 | 13.33° C | 77% | 1005.6 hPa | 0 mm | - | - | - |
| 1777266601 | 12.78° C | 77% | 1005.6 hPa | 0 mm | - | - | - |
| 1777266001 | 12.78° C | 78% | 1005.5 hPa | 0 mm | - | - | - |
| 1777265401 | 12.78° C | 82% | 1005.5 hPa | 0 mm | - | - | - |
| 1777264801 | 12.22° C | 83% | 1005.5 hPa | 0 mm | - | - | - |
| 1777264201 | 12.78° C | 81% | 1005.4 hPa | 0 mm | - | - | - |
| 1777263602 | 12.78° C | 81% | 1005.4 hPa | 0 mm | - | - | - |
| 1777263000 | 12.78° C | 83% | 1005.3 hPa | 0 mm | - | - | - |
| 1777262400 | 12.78° C | 84% | 1005.3 hPa | 0 mm | - | - | - |
| 1777261801 | 12.22° C | 86% | 1005.3 hPa | 0 mm | - | - | - |
| 1777261200 | 12.22° C | 85% | 1005.3 hPa | 0 mm | - | - | - |
| 1777260602 | 12.22° C | 86% | 1005.2 hPa | 0 mm | - | - | - |
| 1777260000 | 12.22° C | 85% | 1005.1 hPa | 0 mm | - | - | - |
| 1777259400 | 12.22° C | 86% | 1005.1 hPa | 0.25 mm | - | - | - |
| 1777258800 | 12.22° C | 86% | 1005 hPa | 0.51 mm | - | - | - |
| 1777258201 | 12.22° C | 91% | 1005.1 hPa | 0.51 mm | - | - | - |
| 1777257601 | 11.67° C | 92% | 1005.1 hPa | 0.51 mm | - | - | - |
| 1777257001 | 11.67° C | 92% | 1005.1 hPa | 0.51 mm | - | - | - |
| 1777256401 | 11.11° C | 92% | 1005.3 hPa | 0.51 mm | - | - | - |
| 1777255800 | 11.11° C | 90% | 1005.4 hPa | 0.25 mm | - | - | - |
| 1777255200 | 11.11° C | 91% | 1005.3 hPa | 0 mm | - | - | - |
| 1777254601 | 11.11° C | 92% | 1005.2 hPa | 0 mm | - | - | - |
| 1777254001 | 10.56° C | 93% | 1005.2 hPa | 0 mm | - | - | - |
| 1777253401 | 10.56° C | 93% | 1005.1 hPa | 0 mm | - | - | - |
| 1777252801 | 10.56° C | 94% | 1005.3 hPa | 0 mm | - | - | - |
* Rain latest hour (hover to see other rain measurements)
** Current wind speed in m/s (hover to see current wind gust speed)